Regional Weather Roundup
Issued by NWS Memphis, TN

Home | Current Version | Previous Version | Text Only | Print | Product List | Glossary On
Versions: 1 2 3 4 5 6 7 8 9 10 11 12 13 14 15 16 17 18 19 20 21 22 23 24 25 26 27 28 29 30 31 32 33 34 35 36 37 38 39 40 41 42 43 44 45 46 47 48 49 50
000
ASUS44 KMEG 271210
RWRMEG
MEMPHIS CWA HOURLY WEATHER ROUNDUP
NATIONAL WEATHER SERVICE MEMPHIS TN
700 AM CDT FRI MAY 27 2016

...WEST TENNESSEE...

CITY           SKY/WX    TMP DP  RH WIND       PRES   REMARKS
MEMPHIS INTL   CLOUDY    74  68  81 S7        29.92R
6HR MIN TEMP:  70; 6HR MAX TEMP:  74; 6HR PCP: TRACE;

NWS MEMPHIS      N/A     71 N/A N/A MISG        N/A
JACKSON        CLOUDY    70  64  81 S7        29.94F
6HR MIN TEMP:  67; 6HR MAX TEMP:  70;

LEXINGTON      SUNNY     66  64  94 SE6       29.98S
DYERSBURG      CLOUDY    70  64  83 SE7       29.92S
6HR MIN TEMP:  66; 6HR MAX TEMP:  70;

UNION CITY     SUNNY     70  68  94 SE9       29.92S
PARIS          SUNNY     66  63  88 S7        29.98R


...EASTERN ARKANSAS...

CITY           SKY/WX    TMP DP  RH WIND       PRES   REMARKS
JONESBORO      CLOUDY    71  69  93 S6        29.88R
6HR MIN TEMP:  69; 6HR MAX TEMP:  71; 6HR PCP:  1.04;

WEST MEMPHIS   CLOUDY    73  69  87 S12       29.89R
6HR MIN TEMP:  69; 6HR MAX TEMP:  73; 6HR PCP: TRACE;

BATESVILLE     CLOUDY    72  70  94 E3        29.86R
6HR MIN TEMP:  70; 6HR MAX TEMP:  72; 6HR PCP:  0.18;

NEWPORT        CLOUDY    72  72 100 SE13      29.87R
6HR MIN TEMP:  69; 6HR MAX TEMP:  72; 6HR PCP:  1.27;

WALNUT RIDGE   CLOUDY    70  66  88 S9        29.87R
6HR MIN TEMP:  66; 6HR MAX TEMP:  70; 6HR PCP:  0.98;

BLYTHEVILLE    CLOUDY    71  67  87 S13       29.91R
6HR MIN TEMP:  68; 6HR MAX TEMP:  71; 6HR PCP:  0.01;

SEARCY         CLOUDY    73  72  96 S9        29.87R
6HR MIN TEMP:  70; 6HR MAX TEMP:  73; 6HR PCP:  0.01;

STUTTGART      CLOUDY    75  66  73 S17G24    29.88R
6HR MIN TEMP:  73; 6HR MAX TEMP:  77;

PINE BLUFF     CLOUDY    73  70  90 S10       29.88R
6HR MIN TEMP:  73; 6HR MAX TEMP:  74;

MONTICELLO     CLOUDY    74  70  87 SE8       29.89R
6HR MIN TEMP:  74; 6HR MAX TEMP:  77; 6HR PCP: TRACE;



...NORTH MISSISSIPPI...

CITY           SKY/WX    TMP DP  RH WIND       PRES   REMARKS
TUPELO         CLOUDY    72  64  76 SE8       29.99S
6HR MIN TEMP:  71; 6HR MAX TEMP:  76;

OXFORD         CLOUDY    72  66  83 SE9G17    29.97R
BATESVILLE     CLOUDY    74  67  80 S8        29.94R
6HR MIN TEMP:  73; 6HR MAX TEMP:  77;

OLIVE BRANCH   CLOUDY    72  72 100 S8        29.94R
TUNICA         CLOUDY    72  68  88 S12       29.92R
CLARKSDALE     PTSUNNY   73  73 100 SE10      29.92R
CORINTH        CLOUDY    70  64  83 SE9       29.98S
GREENWOOD      CLOUDY    73  68  84 S13       29.93S
6HR MIN TEMP:  73; 6HR MAX TEMP:  77; 6HR PCP:  0.01;

COLUMBUS       PTSUNNY   71  67  86 S7        30.01R
6HR MIN TEMP:  68; 6HR MAX TEMP:  71;

STARKVILLE     CLOUDY    68  64  88 SE5       30.00R
GOLDEN TRIANGL SUNNY     70  64  83 SE9       30.01R


...SOUTHEAST MISSOURI...

CITY           SKY/WX    TMP DP  RH WIND       PRES   REMARKS
KENNETT        CLOUDY    72  70  94 S8        29.89R
WEST PLAINS    CLOUDY    67  65  93 SE7       29.87S
6HR MIN TEMP:  67; 6HR MAX TEMP:  68; 6HR PCP:  1.45;

POPLAR BLUFF   LGT RAIN  67  66  97 E6        29.89S
6HR MIN TEMP:  66; 6HR MAX TEMP:  68; 6HR PCP:  2.14;

CAPE GIRARDEAU LGT RAIN  66  65  96 NW5       29.95R
6HR MIN TEMP:  66; 6HR MAX TEMP:  68; 6HR PCP:  0.46;



...NORTHWEST ALABAMA...

CITY           SKY/WX    TMP DP  RH WIND       PRES   REMARKS
MUSCLE SHOALS  PTSUNNY   71  63  75 SW3       30.04S
6HR MIN TEMP:  69; 6HR MAX TEMP:  73;



...MIDDLE TENNESSEE...

CITY           SKY/WX    TMP DP  RH WIND       PRES   REMARKS
NASHVILLE      CLOUDY    69  63  81 SE6       30.04S
6HR MIN TEMP:  64; 6HR MAX TEMP:  69;

CLARKSVILLE    CLOUDY    67  64  90 SE7       30.01R
6HR MIN TEMP:  64; 6HR MAX TEMP:  67;

COLUMBIA       SUNNY    N/A N/A N/A S3        30.02S


...WESTERN KENTUCKY...

CITY           SKY/WX    TMP DP  RH WIND       PRES   REMARKS
PADUCAH        CLOUDY    69  64  84 S5        29.94R
6HR MIN TEMP:  66; 6HR MAX TEMP:  69; 6HR PCP:  0.02;

FORT CAMPBELL  CLOUDY    68  65  91 SE10      30.00R
6HR MIN TEMP:  66; 6HR MAX TEMP:  68;



...CENTRAL ARKANSAS...

CITY           SKY/WX    TMP DP  RH WIND       PRES   REMARKS
LITTLE ROCK    CLOUDY    73  70  90 S10       29.86R
6HR MIN TEMP:  71; 6HR MAX TEMP:  73;



SKY/WX REPORTED AS FAIR MEANS FEW OR NO CLOUDS BELOW
12 THOUSAND FEET.




USA.gov is the U.S. government's official web portal to all federal, state and local government web resources and services.